When you browse on this site, cookies collect data to enhance your experience and personalize the content and advertising you see.
Visit our Privacy Policy to learn more. By continuing to use the site, you agree to this use of cookies and data.
  • In Romania
  • List of Countries
  • For 7 days
  • Water Temperature
  • Satellite Maps
  • Weather Map
  • Weather Widgets
  • user-avatar
    Login

    Hourly Weather Arnedo

    Today, 18 April, Thursday

    Time Temperature Precipitation Wind Pressure Humidity
    00:00 +12°C° 0 mm 5 mps 701 mmHg 74%
    01:00 +12°C° 0.3 mm 5 mps 701 mmHg 77%
    02:00 +11°C° 0.3 mm 4 mps 701 mmHg 81%
    03:00 +11°C° 0.3 mm 4 mps 701 mmHg 84%
    04:00 +11°C° 0.6 mm 4 mps 701 mmHg 86%
    05:00 +10°C° 0.6 mm 4 mps 701 mmHg 89%
    06:00 +10°C° 0.6 mm 4 mps 701 mmHg 91%
    07:00 +10°C° 1.4 mm 4 mps 701 mmHg 91%
    08:00 +10°C° 1.4 mm 4 mps 702 mmHg 90%
    09:00 +10°C° 1.4 mm 4 mps 702 mmHg 90%
    10:00 +10°C° 0.7 mm 5 mps 702 mmHg 84%
    11:00 +10°C° 0.7 mm 5 mps 702 mmHg 79%
    12:00 +11°C° 0.7 mm 6 mps 702 mmHg 73%
    13:00 +11°C° 0.4 mm 6 mps 702 mmHg 71%
    14:00 +12°C° 0.4 mm 7 mps 701 mmHg 70%
    15:00 +12°C° 0.4 mm 7 mps 701 mmHg 68%
    16:00 +13°C° 0.9 mm 5 mps 701 mmHg 70%
    17:00 +12°C° 0.9 mm 4 mps 701 mmHg 72%
    18:00 +13°C° 0.9 mm 2 mps 701 mmHg 74%
    19:00 +11°C° 1 mm 4 mps 701 mmHg 75%
    20:00 +10°C° 1 mm 5 mps 701 mmHg 76%
    21:00 +10°C° 1 mm 6 mps 702 mmHg 77%
    22:00 +9°C° 1.2 mm 7 mps 702 mmHg 81%
    23:00 +9°C° 1.2 mm 8 mps 702 mmHg 86%

    Tomorrow, 19 April, Friday

    Time Temperature Precipitation Wind Pressure Humidity
    00:00 +7°C° 1.2 mm 8 mps 702 mmHg 91%
    01:00 +7°C° 1.6 mm 8 mps 702 mmHg 90%
    02:00 +7°C° 1.6 mm 8 mps 702 mmHg 89%
    03:00 +7°C° 1.6 mm 9 mps 702 mmHg 88%
    04:00 +7°C° 0.5 mm 8 mps 702 mmHg 88%
    05:00 +8°C° 0.5 mm 7 mps 703 mmHg 88%
    06:00 +8°C° 0.5 mm 6 mps 703 mmHg 88%
    07:00 +8°C° 0.9 mm 5 mps 703 mmHg 88%
    08:00 +8°C° 0.9 mm 4 mps 703 mmHg 89%
    09:00 +9°C° 0.9 mm 3 mps 704 mmHg 90%
    10:00 +10°C° 0.4 mm 5 mps 704 mmHg 81%
    11:00 +13°C° 0.4 mm 6 mps 705 mmHg 73%
    12:00 +15°C° 0.4 mm 8 mps 705 mmHg 64%
    13:00 +15°C° 0 mm 8 mps 705 mmHg 61%
    14:00 +16°C° 0 mm 9 mps 705 mmHg 58%
    15:00 +17°C° 0 mm 9 mps 705 mmHg 55%
    16:00 +16°C° 0 mm 9 mps 705 mmHg 57%
    17:00 +15°C° 0 mm 8 mps 706 mmHg 59%
    18:00 +15°C° 0 mm 7 mps 706 mmHg 61%
    19:00 +14°C° 0 mm 6 mps 706 mmHg 64%
    20:00 +13°C° 0 mm 5 mps 706 mmHg 66%
    21:00 +12°C° 0 mm 4 mps 707 mmHg 69%
    22:00 +11°C° 0 mm 3 mps 707 mmHg 71%
    23:00 +12°C° 0 mm 2 mps 707 mmHg 72%

    Day after tomorrow, 20 April, Saturday

    Time Temperature Precipitation Wind Pressure Humidity
    00:00 +10°C° 0 mm 2 mps 707 mmHg 74%
    01:00 +11°C° 0 mm 1 mps 707 mmHg 75%
    02:00 +10°C° 0 mm 1 mps 707 mmHg 77%
    03:00 +10°C° 0 mm 1 mps 707 mmHg 79%
    04:00 +10°C° 0 mm 1 mps 707 mmHg 78%
    05:00 +10°C° 0 mm 1 mps 707 mmHg 77%
    06:00 +10°C° 0 mm 1 mps 707 mmHg 76%
    07:00 +12°C° 0 mm 1 mps 707 mmHg 66%
    08:00 +14°C° 0 mm 2 mps 707 mmHg 57%
    09:00 +16°C° 0 mm 2 mps 707 mmHg 47%
    10:00 +17°C° 0 mm 2 mps 707 mmHg 45%
    11:00 +18°C° 0 mm 3 mps 707 mmHg 42%
    12:00 +19°C° 0 mm 3 mps 707 mmHg 39%
    13:00 +19°C° 0 mm 3 mps 707 mmHg 38%
    14:00 +19°C° 0 mm 3 mps 706 mmHg 37%
    15:00 +20°C° 0 mm 3 mps 706 mmHg 36%
    16:00 +19°C° 0 mm 3 mps 706 mmHg 41%
    17:00 +18°C° 0 mm 4 mps 706 mmHg 45%
    18:00 +17°C° 0 mm 4 mps 706 mmHg 50%
    19:00 +16°C° 0.1 mm 3 mps 706 mmHg 56%
    20:00 +13°C° 0.1 mm 3 mps 707 mmHg 62%
    21:00 +13°C° 0.1 mm 2 mps 707 mmHg 68%
    22:00 +12°C° 0.3 mm 2 mps 707 mmHg 71%
    23:00 +10°C° 0.3 mm 2 mps 706 mmHg 74%

    21 April, Sunday

    Time Temperature Precipitation Wind Pressure Humidity
    00:00 +10°C° 0.3 mm 2 mps 706 mmHg 77%
    01:00 +9°C° 0 mm 2 mps 706 mmHg 78%
    02:00 +9°C° 0 mm 2 mps 705 mmHg 79%
    03:00 +10°C° 0 mm 1 mps 705 mmHg 81%
    04:00 +9°C° 0 mm 1 mps 704 mmHg 82%
    05:00 +9°C° 0 mm 1 mps 704 mmHg 84%
    06:00 +9°C° 0 mm 1 mps 704 mmHg 85%
    07:00 +10°C° 0 mm 1 mps 704 mmHg 81%
    08:00 +10°C° 0 mm 1 mps 704 mmHg 78%
    09:00 +10°C° 0 mm 1 mps 704 mmHg 74%
    10:00 +12°C° 0 mm 2 mps 703 mmHg 69%
    11:00 +13°C° 0 mm 2 mps 703 mmHg 64%
    12:00 +13°C° 0 mm 3 mps 703 mmHg 58%
    13:00 +13°C° 0 mm 3 mps 703 mmHg 58%
    14:00 +13°C° 0 mm 3 mps 702 mmHg 58%
    15:00 +14°C° 0 mm 3 mps 702 mmHg 57%
    16:00 +13°C° 0 mm 3 mps 702 mmHg 60%
    17:00 +14°C° 0 mm 2 mps 702 mmHg 63%
    18:00 +13°C° 0 mm 2 mps 701 mmHg 65%
    19:00 +12°C° 0 mm 2 mps 702 mmHg 70%
    20:00 +12°C° 0 mm 2 mps 702 mmHg 74%
    21:00 +11°C° 0 mm 1 mps 702 mmHg 79%
    22:00 +10°C° 0 mm 1 mps 701 mmHg 81%
    23:00 +10°C° 0 mm 1 mps 701 mmHg 83%

    22 April, Monday

    Time Temperature Precipitation Wind Pressure Humidity
    00:00 +9°C° 0 mm 1 mps 701 mmHg 86%
    01:00 +9°C° 0 mm 1 mps 700 mmHg 87%
    02:00 +8°C° 0 mm 0 mps 700 mmHg 88%
    03:00 +8°C° 0 mm 0 mps 699 mmHg 89%
    04:00 +7°C° 0 mm 0 mps 699 mmHg 89%
    05:00 +7°C° 0 mm 0 mps 699 mmHg 89%
    06:00 +7°C° 0 mm 0 mps 698 mmHg 89%
    07:00 +9°C° 0 mm 0 mps 698 mmHg 80%
    08:00 +12°C° 0 mm 1 mps 698 mmHg 72%
    09:00 +14°C° 0 mm 1 mps 698 mmHg 63%
    10:00 +15°C° 0 mm 1 mps 698 mmHg 59%
    11:00 +16°C° 0 mm 2 mps 698 mmHg 55%
    12:00 +17°C° 0 mm 3 mps 697 mmHg 51%
    13:00 +17°C° 0.2 mm 3 mps 697 mmHg 50%
    14:00 +17°C° 0.2 mm 4 mps 696 mmHg 49%
    15:00 +17°C° 0.2 mm 5 mps 696 mmHg 48%
    16:00 +16°C° 0.1 mm 5 mps 696 mmHg 52%
    17:00 +15°C° 0.1 mm 5 mps 695 mmHg 55%
    18:00 +15°C° 0.1 mm 5 mps 695 mmHg 58%
    19:00 +13°C° 0 mm 4 mps 695 mmHg 63%
    20:00 +12°C° 0 mm 3 mps 696 mmHg 68%
    21:00 +10°C° 0 mm 2 mps 696 mmHg 73%
    22:00 +10°C° 0 mm 2 mps 696 mmHg 76%
    23:00 +9°C° 0 mm 2 mps 695 mmHg 78%

    23 April, Tuesday

    Time Temperature Precipitation Wind Pressure Humidity
    00:00 +9°C° 0 mm 2 mps 695 mmHg 80%
    01:00 +9°C° 0 mm 2 mps 695 mmHg 82%
    02:00 +8°C° 0 mm 2 mps 695 mmHg 84%
    03:00 +9°C° 0 mm 1 mps 694 mmHg 86%
    04:00 +9°C° 0 mm 1 mps 694 mmHg 86%
    05:00 +9°C° 0 mm 1 mps 695 mmHg 85%
    06:00 +9°C° 0 mm 1 mps 695 mmHg 85%
    07:00 +10°C° 0 mm 2 mps 695 mmHg 78%
    08:00 +13°C° 0 mm 2 mps 695 mmHg 70%
    09:00 +14°C° 0 mm 3 mps 695 mmHg 63%
    10:00 +16°C° 0.1 mm 3 mps 696 mmHg 59%
    11:00 +18°C° 0.1 mm 4 mps 696 mmHg 54%
    12:00 +19°C° 0.1 mm 4 mps 696 mmHg 50%
    13:00 +20°C° 0.2 mm 4 mps 696 mmHg 48%
    14:00 +20°C° 0.2 mm 5 mps 696 mmHg 47%
    15:00 +21°C° 0.2 mm 5 mps 696 mmHg 45%
    16:00 +20°C° 0.2 mm 5 mps 696 mmHg 48%
    17:00 +20°C° 0.2 mm 5 mps 696 mmHg 52%
    18:00 +19°C° 0.2 mm 4 mps 696 mmHg 55%
    19:00 +17°C° 0 mm 4 mps 697 mmHg 59%
    20:00 +15°C° 0 mm 4 mps 697 mmHg 64%
    21:00 +14°C° 0 mm 3 mps 698 mmHg 68%
    22:00 +13°C° 0 mm 3 mps 698 mmHg 71%
    23:00 +12°C° 0 mm 3 mps 698 mmHg 74%
    Show more